カタログに戻る

STARLINK-30585

運用中通信VLEO
NORAD 58063·PAYLOAD·🇺🇸 United States

打ち上げ Oct 13, 2023 から Cape Canaveral Space Force Station

Loading…

次のパス (今後24時間)

TLE

最新Source: CelesTrak SupGP

元期: Sep 15, 2026, 03:20 UTC

1 58063C 23158N   26258.13937500 -.00067597  00000+0 -24486-2 0  2581
2 58063  43.0010  37.2066 0001583 260.6106  76.3812 15.27608954    19

AllMySatでSTARLINK-30585をリアルタイム追跡

Download on the App Store